Temperature
18 18 19 19 19 19 19 19 19 19 20 19 19 19 19 19 19 19 19 19 19 19 19 19 19 19 19 19 19 19 19 19 19 19 19 19 19 19 19 19 18 18 19
19 18 19 19 19 19 19 19 20 20 20 19 19 19 19 19 19 19 19 19 19 19 19 19 19 19 19 19 19 19 19 19 19 19 19 19 19 19 19 19 19 19 19
19 19 19 19 19 19 19 19 20 19 19 19 19 19 19 19 19 19 19 19 19 19 19 19 19 19 19 19 19 19 19 19 19 19 19 18 19 19 19 19 19 19 19
19 19 19 19 19 19 19 19 19 19 19 19 19 19 19 19 19 19 19 19 19 19 19 18 18 18 18 18 18 19 19 19 19 19 18 18 18 19 19 19 19 19 19
19 19 19 19 19 19 19 19 19 19 19 19 19 19 19 19 19 19 19 19 19 19 18 18 18 18 18 18 18 18 18 19 19 18 18 18 18 19 19 19 19 18 18
19 19 19 19 19 19 19 19 19 19 19 19 19 19 19 19 19 19 19 19 19 19 18 18 18 18 18 18 18 18 18 18 18 18 18 18 18 19 19 19 19 18 18
19 19 19 20 19 19 19 19 19 19 19 19 19 19 19 19 19 19 18 18 18 18 18 18 18 18 18 18 18 18 18 18 18 18 18 18 18 18 18 18 18 18 18
19 19 19 20 19 19 19 19 19 19 19 19 19 18 18 18 18 18 18 18 18 18 18 18 18 18 18 18 18 18 18 18 17 17 17 18 18 18 18 18 18 18 18
19 19 18 19 19 19 19 19 19 19 19 19 18 18 18 18 18 18 18 17 17 18 18 18 18 18 18 18 18 18 18 18 17 17 17 17 18 18 18 18 18 18 18
19 19 19 18 18 18 18 19 19 18 18 18 18 18 18 18 18 18 17 17 17 17 18 18 18 18 18 18 18 18 18 18 17 17 17 17 18 18 18 18 18 18 18
19 19 19 19 18 18 18 18 18 18 18 18 18 18 18 17 17 17 16 18 17 17 18 18 18 18 18 18 18 18 18 18 17 17 17 18 18 18 18 18 18 18 18
19 19 19 19 19 18 18 18 18 18 18 18 18 18 17 17 17 17 17 18 18 18 18 18 18 18 18 18 17 18 18 17 17 17 17 18 18 18 18 18 18 18 18
20 19 19 19 19 18 18 18 18 18 18 18 17 17 17 17 17 17 17 17 17 17 17 18 17 17 18 18 18 18 17 17 17 17 16 17 18 18 18 18 18 18 18
21 20 19 19 19 18 18 18 18 18 18 18 17 17 17 17 17 17 17 17 16 16 16 17 17 17 17 18 18 18 17 17 17 16 17 17 17 17 17 18 18 18 18
21 20 20 19 19 19 18 18 18 18 18 18 18 17 17 17 17 17 17 17 17 17 17 17 17 18 18 18 17 17 17 17 17 16 16 17 17 17 17 17 17 18 18
21 21 20 19 19 19 18 18 18 18 18 18 17 17 18 17 17 17 17 17 17 17 17 17 17 17 17 17 17 17 17 17 16 16 16 16 17 17 17 17 17 17 17
22 21 21 20 19 19 19 18 18 18 18 18 17 18 18 17 17 17 17 17 17 17 17 17 17 17 17 17 17 16 17 16 16 16 16 16 16 17 17 17 17 17 17
22 22 21 20 19 19 19 18 18 18 18 18 17 17 18 18 17 17 17 17 17 17 17 17 17 17 17 17 17 17 16 16 16 16 16 16 16 16 16 16 16 17 17
22 21 21 20 20 19 19 18 18 18 18 17 17 17 17 17 17 17 17 17 17 16 16 17 17 17 17 17 17 16 16 16 16 16 17 16 16 16 16 16 16 16 16
21 21 21 20 20 20 19 19 18 18 17 17 17 17 17 17 17 17 17 17 17 16 16 16 16 16 17 16 17 16 16 16 16 16 16 16 16 16 16 15 16 16 16
21 21 21 21 20 20 19 19 19 18 18 18 18 17 17 17 17 17 17 17 17 17 16 16 16 16 16 16 16 16 16 16 17 16 16 16 16 16 16 15 15 15 16
20 21 21 21 20 20 20 20 19 19 18 18 18 18 18 17 17 17 17 17 17 17 16 16 16 16 16 16 16 17 17 17 16 16 16 16 16 16 16 16 16 15 15
19 20 21 21 21 20 20 20 20 19 19 18 18 18 18 18 17 17 17 17 17 17 17 17 16 16 16 16 16 16 16 17 18 17 16 16 16 16 16 16 16 16 15
18 19 20 20 20 20 19 20 20 19 18 18 18 18 17 17 17 17 17 17 17 16 16 16 16 16 16 16 16 16 16 16 16 17 16 16 16 16 16 15 15 15 15
17 18 19 19 19 19 19 19 19 18 18 17 17 17 17 17 17 17 17 17 16 16 16 16 16 16 16 16 15 15 15 15 15 16 17 16 16 16 15 15 15 15 15
16 17 18 18 18 18 18 18 18 17 17 17 16 17 17 17 17 17 17 16 16 16 16 16 16 16 16 15 15 15 15 15 15 15 16 16 16 16 15 15 15 15 15
Wind_Speed
12 15 19 17 17 16 16 15 14 13 13 12 12 11 11 10 10 9 9 8 8 7 7 7 6 6 7 7 7 8 8 8 8 7 6 4 3 3 4 2 2 4 6
15 17 19 18 17 16 16 15 14 13 12 12 12 11 11 10 9 9 8 8 8 8 7 7 6 7 7 7 8 8 8 8 8 7 5 5 5 5 4 2 5 7 6
17 17 19 18 17 16 15 14 13 13 12 12 12 11 11 10 9 9 8 8 8 8 7 7 6 7 7 7 8 8 7 7 7 6 3 3 7 6 5 5 7 8 7
17 17 18 18 17 16 15 14 13 13 12 12 12 11 10 9 9 9 9 9 9 8 8 7 7 7 6 6 6 6 6 6 5 4 3 4 6 8 5 6 7 8 7
16 16 17 17 16 15 15 14 13 13 13 12 11 10 10 9 9 9 9 9 9 10 9 9 8 7 6 5 5 5 4 5 4 4 3 4 6 8 6 6 6 7 7
15 15 17 17 16 15 15 14 13 13 12 12 11 10 9 9 8 8 9 9 10 10 10 10 10 9 8 6 6 6 6 5 5 2 3 3 6 7 6 6 6 6 7
15 15 17 17 16 15 15 14 14 13 13 12 11 10 9 8 8 8 8 9 10 10 10 10 10 9 9 9 9 9 8 3 1 2 2 3 7 6 5 5 5 5 6
15 15 16 16 15 15 14 14 14 14 13 12 12 11 9 8 8 7 8 9 9 9 10 10 9 9 9 9 10 10 7 2 5 3 3 4 6 4 3 3 4 4 4
14 13 14 16 16 15 14 14 15 14 13 13 12 11 10 9 8 7 8 8 8 8 9 9 8 8 8 8 8 9 8 3 4 4 4 6 5 2 3 3 3 3 3
13 13 13 14 15 15 15 15 14 14 14 13 12 11 11 10 8 7 8 8 7 7 8 8 8 7 6 6 7 7 5 4 4 3 4 7 6 4 4 4 4 3 3
12 12 12 12 12 12 13 15 15 14 13 13 13 12 11 10 10 9 7 8 7 8 7 7 7 5 5 8 7 6 5 0 2 2 4 8 5 5 5 5 4 3 3
14 13 11 11 11 11 10 12 11 12 13 13 12 13 11 8 6 5 12 7 7 8 8 6 5 6 7 7 8 7 2 0 1 1 5 6 3 3 3 3 3 2 1
14 13 12 11 11 10 9 9 9 9 10 11 11 11 8 8 7 7 9 10 9 9 8 7 8 5 4 3 2 2 1 2 2 1 4 5 3 1 1 2 2 1 1
12 13 12 12 11 11 9 8 8 8 9 9 10 11 9 6 6 7 6 7 7 6 4 5 3 4 4 4 3 1 1 1 1 2 5 5 3 3 3 3 3 2 2
12 12 13 13 12 11 9 7 8 8 8 9 9 10 10 7 7 6 6 6 7 6 6 4 4 4 3 2 1 1 2 2 1 1 3 6 4 3 1 3 3 2 3
12 12 12 13 12 11 10 9 8 8 8 8 9 10 11 8 7 6 6 6 7 7 5 5 4 4 4 2 1 2 2 2 2 2 2 5 5 4 3 0 2 1 1
11 12 12 12 12 12 12 11 8 8 9 8 9 11 11 9 8 7 6 7 7 8 7 5 4 4 3 3 3 1 2 2 2 2 3 2 4 6 5 3 2 2 2
11 12 12 11 12 12 11 10 8 9 9 8 9 10 12 11 10 7 6 6 8 8 7 5 5 5 5 4 3 3 2 2 1 2 1 2 3 4 7 7 5 3 4
12 13 13 14 14 13 12 10 9 8 8 8 9 9 11 12 11 9 6 6 9 7 7 6 6 6 6 5 4 3 3 3 1 2 1 2 3 3 5 8 8 7 5
12 14 14 14 15 14 12 10 9 8 8 8 8 10 12 11 12 9 5 7 7 7 7 7 7 6 6 5 5 5 4 4 4 4 2 2 2 3 2 3 5 7 7
13 15 16 16 16 14 11 11 10 9 8 8 8 11 12 12 12 10 7 7 7 8 9 9 8 8 7 7 6 6 6 7 6 5 5 4 4 3 4 4 2 3 5
11 15 17 17 17 16 13 12 10 8 7 7 7 9 12 13 12 10 10 8 9 9 11 10 9 8 7 8 8 7 6 7 7 8 7 6 6 5 5 4 5 4 3
10 12 14 16 16 16 15 10 8 6 4 5 6 8 10 12 11 11 10 9 10 10 9 11 11 11 9 9 9 7 6 5 4 6 9 8 7 6 6 6 5 5 4
11 10 12 13 14 13 14 11 11 6 4 4 3 5 7 9 10 10 9 9 8 8 8 9 10 9 10 9 9 9 9 5 5 4 6 8 8 8 8 6 6 6 6
11 8 5 6 9 11 12 11 9 5 2 1 0 3 5 6 8 9 8 7 7 7 8 8 8 9 9 10 9 9 10 8 10 8 6 6 6 8 8 8 7 7 7
10 6 1 5 8 10 11 10 10 9 5 2 1 3 4 4 6 8 7 7 7 6 7 7 7 9 9 10 9 9 9 8 10 10 9 7 5 6 7 7 8 7 8
Wind_Direction
154 148 145 147 146 142 138 136 134 132 132 133 133 130 126 120 115 111 110 108 105 103 102 100 100 101 104 116 130 135 128 123 121 119 116 109 100 113 126 101 255 141 110
150 147 147 150 149 146 142 140 139 137 137 135 133 130 126 121 116 110 104 102 99 98 97 96 97 97 101 110 121 122 120 118 116 115 123 134 114 105 112 72 22 81 101
148 146 150 152 151 150 147 146 145 143 140 138 135 131 127 123 118 113 107 101 97 96 95 95 95 94 96 101 110 116 117 114 114 120 179 135 118 114 115 104 86 87 93
149 150 152 153 153 153 152 152 151 148 144 141 137 133 129 125 121 115 109 102 96 93 93 93 92 90 91 96 104 112 117 118 124 180 180 101 109 110 111 104 97 95 95
151 151 147 155 155 156 155 154 153 151 149 147 144 140 136 131 126 120 113 104 97 90 85 86 89 88 86 90 103 114 120 129 154 226 93 93 92 103 105 103 103 103 101
155 153 150 157 157 159 158 157 157 155 154 154 152 148 142 136 132 127 121 110 101 93 85 81 82 81 77 80 92 99 104 123 194 139 113 113 103 105 109 109 110 109 104
161 158 155 160 161 162 160 160 161 160 159 159 158 153 146 140 137 134 128 117 108 99 89 82 78 75 71 81 95 94 98 119 137 113 107 96 91 102 111 116 117 116 118
165 164 159 163 167 167 166 164 162 162 162 163 162 157 150 146 142 137 131 124 114 104 94 86 79 76 74 83 97 94 87 4 108 94 89 83 82 97 104 111 124 127 129
169 171 168 169 173 173 172 170 167 167 167 167 165 162 158 152 146 139 130 123 120 113 103 94 87 83 78 83 97 100 91 45 70 71 74 71 68 79 102 93 99 106 124
176 178 179 178 176 176 176 176 175 173 172 170 169 167 162 157 155 150 154 134 135 127 114 105 98 94 86 89 106 118 138 209 64 81 65 68 52 62 84 90 84 77 90
185 185 187 184 181 181 178 172 179 178 176 174 174 170 175 179 168 170 134 135 144 135 125 115 109 114 130 121 117 145 207 102 81 45 65 57 48 63 81 88 84 77 76
187 191 191 191 185 184 180 173 184 181 179 187 181 176 189 178 167 149 124 151 148 141 136 124 134 167 207 152 145 195 186 164 278 50 75 56 33 65 91 99 97 87 69
187 190 196 196 192 187 184 180 183 183 184 190 183 180 189 174 168 170 163 165 166 174 166 153 191 170 162 125 155 166 47 312 334 348 85 53 350 314 159 156 154 158 218
190 192 195 200 195 195 193 187 186 185 186 188 189 185 184 186 183 172 184 173 174 184 175 191 187 164 167 166 162 117 116 307 356 345 73 45 348 296 242 210 204 203 225
192 195 196 199 201 197 196 196 196 192 191 190 187 192 188 187 188 174 184 182 195 181 179 195 206 167 178 144 76 30 65 58 39 43 94 76 30 9 298 237 220 227 228
198 199 195 199 201 200 194 199 201 195 195 197 188 199 194 191 192 183 190 187 192 189 187 195 186 174 182 159 118 63 33 59 69 87 79 122 101 59 39 102 187 201 226
207 205 199 201 200 202 203 202 200 199 196 198 195 203 198 195 194 193 192 187 189 190 191 199 175 184 172 164 162 133 85 35 25 69 73 71 118 105 79 75 95 108 119
222 218 207 202 206 203 203 203 202 203 200 200 198 205 205 200 200 194 191 192 193 192 197 192 203 196 187 194 187 178 176 150 216 56 120 113 96 108 101 82 83 96 110
235 227 219 211 210 205 202 204 206 203 201 206 204 204 210 209 207 200 200 194 191 199 206 207 210 213 208 204 208 207 223 213 205 232 189 118 114 117 115 108 99 82 81
245 235 226 216 214 207 200 204 201 206 205 207 208 209 214 217 219 215 205 208 203 207 213 220 216 226 233 220 224 220 230 234 229 230 232 211 197 145 130 141 147 112 89
252 238 231 221 214 208 199 199 198 201 205 208 211 214 215 221 225 228 225 217 215 219 219 223 223 221 226 225 227 227 227 232 237 213 227 228 208 183 203 180 184 170 136
266 248 235 223 217 208 201 198 198 197 204 208 211 216 220 223 225 230 230 227 224 226 225 224 220 224 222 220 228 236 236 219 223 226 217 228 229 195 220 207 193 188 192
287 263 243 230 216 205 196 188 176 169 168 185 208 215 220 226 228 228 231 230 229 226 227 227 221 223 222 219 227 230 239 245 219 209 216 217 223 219 218 216 215 195 186
313 286 254 232 212 195 185 179 173 177 187 203 210 215 215 217 221 222 227 229 228 228 230 229 225 225 223 218 219 231 242 255 247 225 208 220 217 219 224 211 223 216 200
331 314 269 210 182 169 167 165 152 133 119 74 320 239 220 213 215 215 217 220 227 228 232 230 228 228 226 226 220 218 227 238 245 252 233 205 207 218 222 220 214 220 211
348 351 12 139 144 148 145 136 124 114 96 66 303 252 226 209 208 208 205 211 219 225 229 228 228 228 235 235 231 226 222 224 229 233 236 227 219 213 212 218 223 219 217
Height
1528 1530 1530 1532 1534 1536 1537 1539 1540 1542 1543 1543 1544 1545 1546 1546 1547 1548 1548 1549 1549 1550 1550 1551 1551 1551 1551 1552 1552 1552 1552 1552 1553 1553 1553 1553 1554 1554 1553 1553 1553 1554 1552
1528 1530 1531 1533 1535 1537 1538 1540 1542 1543 1544 1545 1545 1546 1547 1547 1548 1549 1549 1550 1550 1550 1551 1551 1551 1552 1552 1553 1553 1553 1553 1553 1554 1554 1555 1555 1555 1555 1555 1555 1554 1555 1554
1528 1530 1531 1534 1536 1537 1539 1541 1542 1544 1545 1545 1546 1547 1548 1548 1549 1550 1550 1550 1551 1551 1551 1551 1552 1552 1553 1553 1554 1554 1554 1555 1555 1556 1556 1557 1556 1556 1556 1556 1556 1555 1555
1529 1531 1533 1534 1536 1538 1540 1542 1543 1544 1545 1546 1547 1548 1549 1550 1550 1551 1551 1551 1551 1551 1551 1552 1552 1553 1553 1554 1555 1555 1556 1556 1557 1557 1558 1558 1558 1557 1557 1557 1557 1557 1557
1530 1532 1533 1535 1537 1539 1540 1542 1544 1545 1546 1547 1548 1549 1550 1551 1551 1552 1552 1552 1552 1552 1552 1552 1553 1553 1554 1555 1555 1556 1557 1557 1557 1558 1559 1558 1558 1558 1558 1558 1559 1558 1558
1531 1533 1534 1536 1538 1539 1541 1543 1544 1545 1547 1548 1549 1550 1551 1552 1552 1552 1552 1552 1552 1553 1553 1553 1553 1554 1555 1555 1556 1557 1557 1558 1558 1559 1558 1559 1559 1559 1559 1559 1559 1559 1559
1532 1534 1534 1536 1538 1540 1541 1543 1544 1546 1547 1548 1549 1551 1551 1552 1552 1552 1553 1553 1553 1553 1553 1554 1554 1555 1555 1556 1557 1558 1558 1558 1559 1559 1559 1559 1559 1559 1560 1560 1560 1560 1560
1532 1534 1535 1536 1538 1539 1541 1543 1544 1546 1547 1548 1549 1550 1551 1552 1552 1553 1553 1553 1553 1553 1554 1554 1555 1556 1557 1557 1558 1559 1559 1559 1560 1560 1559 1560 1559 1559 1560 1560 1560 1560 1560
1532 1534 1536 1536 1537 1539 1541 1543 1545 1546 1547 1548 1549 1550 1551 1552 1552 1553 1553 1553 1553 1553 1554 1555 1556 1557 1558 1558 1559 1559 1559 1560 1561 1560 1561 1560 1559 1560 1560 1560 1561 1561 1561
1532 1534 1536 1537 1539 1539 1540 1542 1544 1546 1547 1548 1549 1550 1551 1552 1552 1553 1553 1553 1553 1554 1554 1555 1556 1557 1558 1559 1559 1560 1560 1560 1561 1561 1561 1560 1559 1560 1560 1560 1561 1561 1561
1531 1534 1536 1537 1539 1540 1541 1541 1543 1545 1546 1547 1548 1549 1550 1552 1553 1554 1554 1553 1553 1554 1555 1555 1557 1558 1558 1559 1559 1560 1560 1562 1561 1562 1560 1559 1559 1559 1560 1560 1561 1561 1561
1530 1532 1535 1536 1538 1539 1540 1541 1542 1544 1545 1547 1548 1549 1551 1553 1554 1555 1552 1553 1554 1554 1555 1556 1557 1558 1559 1561 1560 1560 1562 1561 1562 1561 1560 1558 1558 1559 1559 1560 1560 1561 1561
1529 1531 1533 1535 1537 1538 1539 1540 1541 1542 1544 1546 1548 1549 1551 1552 1553 1554 1554 1554 1555 1556 1558 1557 1558 1560 1561 1561 1562 1562 1561 1561 1561 1560 1559 1557 1557 1558 1558 1559 1559 1560 1560
1528 1530 1531 1533 1535 1537 1538 1539 1540 1541 1543 1545 1547 1549 1550 1551 1553 1554 1554 1556 1556 1557 1558 1559 1560 1561 1561 1562 1562 1562 1561 1560 1559 1559 1557 1556 1556 1557 1557 1558 1558 1559 1559
1527 1528 1530 1531 1534 1535 1537 1537 1539 1540 1542 1544 1545 1548 1549 1550 1552 1552 1554 1554 1556 1557 1558 1558 1560 1561 1561 1562 1562 1561 1561 1559 1559 1558 1557 1556 1556 1556 1557 1557 1557 1557 1558
1526 1527 1529 1530 1532 1533 1535 1536 1538 1539 1540 1543 1544 1546 1548 1549 1551 1551 1553 1553 1555 1556 1558 1559 1560 1560 1561 1561 1561 1560 1560 1560 1559 1557 1557 1556 1556 1556 1556 1556 1557 1557 1557
1525 1527 1528 1529 1530 1532 1534 1535 1536 1537 1539 1541 1542 1545 1547 1548 1549 1550 1551 1552 1553 1555 1557 1558 1559 1560 1560 1560 1560 1560 1560 1559 1559 1559 1557 1557 1556 1555 1556 1556 1556 1556 1556
1523 1525 1526 1527 1528 1530 1531 1533 1534 1535 1537 1538 1540 1542 1545 1547 1548 1549 1550 1551 1552 1554 1556 1556 1558 1558 1559 1559 1560 1560 1559 1558 1559 1558 1558 1558 1557 1556 1555 1555 1555 1555 1555
1520 1522 1524 1525 1526 1528 1529 1530 1532 1533 1534 1536 1538 1540 1542 1545 1546 1547 1548 1549 1551 1552 1553 1555 1556 1557 1558 1558 1559 1558 1559 1559 1558 1558 1559 1558 1557 1556 1556 1555 1555 1555 1555
1516 1518 1520 1521 1523 1525 1526 1528 1529 1530 1532 1533 1535 1537 1539 1541 1543 1545 1546 1547 1548 1549 1551 1552 1553 1554 1555 1556 1557 1557 1557 1557 1557 1557 1557 1557 1557 1557 1556 1556 1556 1555 1554
1509 1511 1514 1516 1519 1520 1522 1523 1525 1527 1529 1530 1532 1534 1536 1538 1539 1541 1543 1545 1545 1546 1547 1549 1550 1551 1552 1554 1555 1555 1555 1554 1556 1555 1555 1556 1556 1556 1555 1556 1556 1556 1555
1503 1504 1507 1510 1513 1515 1516 1519 1521 1524 1526 1528 1529 1530 1532 1534 1536 1538 1539 1541 1542 1543 1544 1545 1546 1547 1548 1550 1552 1552 1552 1553 1550 1552 1552 1553 1555 1554 1555 1555 1555 1554 1555
1498 1498 1500 1503 1506 1508 1511 1513 1516 1519 1522 1524 1526 1527 1529 1531 1533 1534 1536 1538 1538 1539 1540 1541 1542 1543 1544 1545 1547 1548 1548 1548 1548 1549 1549 1550 1551 1552 1553 1553 1554 1554 1554
1493 1492 1493 1495 1498 1501 1504 1506 1510 1514 1518 1521 1523 1525 1526 1528 1529 1531 1532 1534 1535 1536 1537 1538 1538 1539 1540 1540 1541 1542 1544 1545 1546 1546 1546 1547 1548 1548 1550 1550 1551 1552 1552
1489 1487 1487 1488 1491 1493 1497 1499 1503 1508 1512 1517 1520 1522 1523 1524 1526 1528 1529 1531 1532 1533 1534 1534 1535 1535 1536 1537 1537 1538 1539 1540 1541 1542 1543 1544 1544 1544 1546 1547 1548 1549 1550
1487 1485 1484 1484 1486 1488 1491 1494 1497 1502 1507 1512 1516 1520 1521 1521 1523 1524 1526 1528 1529 1530 1531 1531 1531 1531 1532 1533 1533 1534 1535 1536 1536 1537 1538 1539 1540 1542 1542 1543 1545 1546 1546